Eagle, AK

4:50 AM AKST on December 11, 2017 (GMT -0900)
Eagle

Weather History for PAEG - March, 2014

Change the Weather History Date:

Saturday, March 8, 2014

  Actual Average (PABN) Record (PABN)
Temperature  
Mean Temperature -14 °F -  
Max Temperature 3 °F 14 °F 39 °F (1997)
Min Temperature -31 °F 2 °F -14 °F (1999)
Degree Days  
Heating Degree Days 79    
Moisture  
Dew Point -24 °F    
Average Humidity 58    
Maximum Humidity 74    
Minimum Humidity 37    
Precipitation  
Precipitation 0.00 in - - ()
Sea Level Pressure  
Sea Level Pressure 29.66 in    
Wind  
Wind Speed 1 mph (WSW)    
Max Wind Speed 6 mph    
Max Gust Speed -    
Visibility 10 miles    
Events      
Averages and records for this station are not official NWS values.
T = Trace of Precipitation, MM = Missing Value Source: NWS Daily Summary

Daily Weather History Graph

Daily Weather History Graph

Search for Another Location

Airport or City:

Trip Planner

Search our weather history database for the weather conditions in past years. The results will help you decide how hot, cold, wet, or windy it might be!

Date:

Astronomy

Mar. 08, 2014 Rise Set
Actual Time 7:07 AM AKST 6:04 PM AKST
Civil Twilight 6:19 AM AKST 6:52 PM AKST
Nautical Twilight 5:22 AM AKST 7:50 PM AKST
Astronomical Twilight 4:21 AM AKST 8:51 PM AKST
Moon 9:30 AM AKST (3/8) 3:33 AM AKST (3/8)
Length of Visible Light 12h 33m
Length of Day
10h 56m
First Quarter, 53% of the Moon is Illuminated
Mar 8
First Quarter
Mar 16
Full
Mar 23
Last Quarter
Mar 30
New
Apr 7
First Quarter

Hourly Weather History & Observations

Time (AKST) Temp. Windchill Dew Point Humidity Pressure Visibility Wind Dir Wind Speed Gust Speed Precip Events Conditions
12:53 AM -25.1 °F - -31.0 °F 74% 29.77 in 10.0 mi Calm Calm - N/A   Clear
1:53 AM -27.0 °F - -34.1 °F 69% 29.76 in 10.0 mi Calm Calm - N/A   Clear
3:53 AM -29.0 °F - -35.0 °F 73% 29.73 in 10.0 mi Calm Calm - N/A   Clear
4:53 AM -29.9 °F - - N/A% 29.74 in 10.0 mi Calm Calm - N/A   Clear
5:53 AM -29.9 °F -42.0 °F - N/A% 29.74 in 10.0 mi WSW 3.5 mph - N/A   Clear
6:53 AM -31.0 °F - - N/A% 29.74 in 10.0 mi Calm Calm - N/A   Clear
7:53 AM -31.0 °F - - N/A% 29.74 in 10.0 mi Calm Calm - N/A   Clear
8:53 AM -22.0 °F - -27.9 °F 74% 29.72 in 10.0 mi Calm Calm - N/A   Clear
9:53 AM -14.1 °F - -20.9 °F 71% 29.70 in 10.0 mi Calm Calm - N/A   Clear
10:53 AM -9.9 °F - -20.0 °F 61% 29.68 in 10.0 mi Calm Calm - N/A   Clear
11:53 AM -5.1 °F - -18.0 °F 54% 29.65 in 10.0 mi Calm Calm - N/A   Clear
12:53 PM -0.9 °F - -17.0 °F 47% 29.63 in 10.0 mi Calm Calm - N/A   Clear
1:53 PM 1.0 °F - -16.1 °F 45% 29.62 in 10.0 mi Calm Calm - N/A   Clear
2:53 PM 3.0 °F - -16.1 °F 41% 29.59 in 10.0 mi Calm Calm - N/A   Clear
3:53 PM 3.9 °F - -17.0 °F 38% 29.58 in 10.0 mi Calm Calm - N/A   Clear
4:53 PM 3.0 °F -8.0 °F -18.0 °F 37% 29.57 in 10.0 mi Variable 5.8 mph - N/A   Clear
5:53 PM -0.9 °F - -18.9 °F 42% 29.58 in 10.0 mi Calm Calm - N/A   Clear
6:53 PM -14.1 °F - -26.0 °F 55% 29.60 in 10.0 mi Calm Calm - N/A   Clear
7:53 PM -17.0 °F -27.2 °F -27.0 °F 60% 29.62 in 10.0 mi SE 3.5 mph - N/A   Clear
8:53 PM -20.0 °F -33.3 °F -29.0 °F 63% 29.61 in 10.0 mi WNW 4.6 mph - N/A   Clear
9:53 PM -22.0 °F - -29.9 °F 67% 29.61 in 10.0 mi Calm Calm - N/A   Clear
10:53 PM -23.1 °F - -29.9 °F 70% 29.60 in 10.0 mi Calm Calm - N/A   Clear
11:53 PM -20.0 °F - -27.0 °F 70% 29.60 in 10.0 mi Calm Calm - N/A   Clear